| time (UTC) | temp C | wind direction | speed KPH | gust KPH | rain 1hr cm | rain 24hr cm | rain mn cm | humidity % | barometer mb |
| 20260902062006 | 15 | 163 | 3.2 | 6.4 | 0.00 | 0.00 | 0.00 | 81 | 1020.9 |
| 20260902060008 | 14 | 163 | 3.2 | 6.4 | 0.00 | 0.00 | 0.00 | 83 | 1020.8 |
| 20260902055006 | 13 | 194 | 3.2 | 6.4 | 0.00 | 0.00 | 0.00 | 84 | 1020.8 |
| 20260902054007 | 13 | 194 | 3.2 | 6.4 | 0.00 | 0.00 | 0.00 | 84 | 1020.8 |
| 20260902053006 | 13 | 194 | 3.2 | 6.4 | 0.00 | 0.00 | 0.00 | 86 | 1020.8 |
| 20260902051006 | 11 | 194 | 0.0 | 1.6 | 0.00 | 0.00 | 0.00 | 90 | 1020.7 |
| 20260902050009 | 10 | 194 | 0.0 | 1.6 | 0.00 | 0.00 | 0.00 | 92 | 1020.6 |
| 20260902045007 | 10 | 194 | 3.2 | 4.8 | 0.00 | 0.00 | 0.00 | 92 | 1020.6 |
| 20260902043005 | 9 | 194 | 0.0 | 1.6 | 0.00 | 0.00 | 0.00 | 92 | 1020.5 |
| 20260902042008 | 10 | 194 | 3.2 | 6.4 | 0.00 | 0.00 | 0.00 | 90 | 1020.5 |
| 20260902035005 | 9 | 194 | 1.6 | 3.2 | 0.00 | 0.00 | 0.00 | 91 | 1020.6 |
| 20260902034005 | 9 | 194 | 4.8 | 6.4 | 0.00 | 0.00 | 0.00 | 91 | 1020.5 |
| 20260902033006 | 10 | 194 | 3.2 | 4.8 | 0.00 | 0.00 | 0.00 | 91 | 1020.5 |
| 20260902031007 | 10 | 194 | 1.6 | 3.2 | 0.00 | 0.00 | 0.00 | 91 | 1020.4 |
| 20260902030008 | 10 | 194 | 0.0 | 3.2 | 0.00 | 0.00 | 0.00 | 91 | 1020.5 |
| 20260902025007 | 10 | 194 | 0.0 | 3.2 | 0.00 | 0.00 | 0.00 | 92 | 1020.5 |
| 20260902024005 | 10 | 194 | 1.6 | 4.8 | 0.00 | 0.00 | 0.00 | 91 | 1020.3 |
| 20260902023007 | 10 | 194 | 3.2 | 4.8 | 0.00 | 0.00 | 0.00 | 91 | 1020.5 |
| 20260902020007 | 10 | 194 | 1.6 | 3.2 | 0.00 | 0.00 | 0.00 | 91 | 1020.6 |
| 20260902015008 | 10 | 194 | 0.0 | 1.6 | 0.00 | 0.00 | 0.00 | 91 | 1020.5 |
| 20260902014005 | 10 | 194 | 0.0 | 1.6 | 0.00 | 0.00 | 0.00 | 91 | 1020.6 |
| 20260902012005 | 10 | 194 | 1.6 | 3.2 | 0.00 | 0.00 | 0.00 | 92 | 1020.7 |
| 20260902011005 | 10 | 194 | 0.0 | 3.2 | 0.00 | 0.00 | 0.00 | 91 | 1020.6 |
| 20260902010007 | 10 | 194 | 1.6 | 1.6 | 0.00 | 0.00 | 0.00 | 91 | 1020.5 |
| 20260902005007 | 10 | 194 | 0.0 | 1.6 | 0.00 | 0.00 | 0.00 | 91 | 1020.5 |
| 20260902004005 | 11 | 194 | 1.6 | 3.2 | 0.00 | 0.00 | 0.00 | 91 | 1020.5 |
| 20260902003004 | 11 | 194 | 3.2 | 4.8 | 0.00 | 0.00 | 0.00 | 90 | 1020.5 |
| 20260902002007 | 11 | 194 | 0.0 | 3.2 | 0.00 | 0.00 | 0.00 | 91 | 1020.5 |
| 20260902001005 | 10 | 194 | 1.6 | 1.6 | 0.00 | 0.00 | 0.00 | 91 | 1020.5 |
| 20260902000009 | 11 | 194 | 1.6 | 3.2 | 0.00 | 0.00 | 0.00 | 91 | 1020.4 |
| 20260901235005 | 11 | 194 | 0.0 | 0.0 | 0.00 | 0.00 | 0.00 | 91 | 1020.4 |
| 20260901234004 | 11 | 194 | 0.0 | 1.6 | 0.00 | 0.00 | 0.00 | 90 | 1020.5 |
| 20260901233006 | 11 | 194 | 0.0 | 3.2 | 0.00 | 0.00 | 0.00 | 91 | 1020.5 |
| 20260901232005 | 11 | 194 | 1.6 | 3.2 | 0.00 | 0.00 | 0.00 | 91 | 1020.4 |
| 20260901231004 | 11 | 194 | 0.0 | 1.6 | 0.00 | 0.00 | 0.00 | 91 | 1020.5 |
| 20260901230009 | 11 | 194 | 1.6 | 1.6 | 0.00 | 0.00 | 0.00 | 90 | 1020.6 |
| 20260901225005 | 11 | 194 | 0.0 | 3.2 | 0.00 | 0.00 | 0.00 | 90 | 1020.5 |
| 20260901224004 | 11 | 194 | 0.0 | 0.0 | 0.00 | 0.00 | 0.00 | 91 | 1020.5 |
| 20260901223006 | 11 | 194 | 0.0 | 1.6 | 0.00 | 0.00 | 0.00 | 90 | 1020.5 |
| 20260901222006 | 11 | 194 | 0.0 | 1.6 | 0.00 | 0.00 | 0.00 | 90 | 1020.5 |
| 20260901221005 | 11 | 194 | 1.6 | 3.2 | 0.00 | 0.00 | 0.00 | 89 | 1020.4 |
| 20260901220011 | 11 | 194 | 0.0 | 0.0 | 0.00 | 0.00 | 0.00 | 90 | 1020.4 |
| 20260901214006 | 12 | 194 | 0.0 | 3.2 | 0.00 | 0.00 | 0.00 | 90 | 1020.4 |
| 20260901213005 | 12 | 194 | 0.0 | 1.6 | 0.00 | 0.00 | 0.00 | 89 | 1020.4 |
| 20260901212005 | 12 | 194 | 1.6 | 3.2 | 0.00 | 0.00 | 0.00 | 89 | 1020.4 |
| 20260901211004 | 12 | 194 | 1.6 | 1.6 | 0.00 | 0.00 | 0.00 | 88 | 1020.5 |
| 20260901210007 | 13 | 194 | 1.6 | 3.2 | 0.00 | 0.00 | 0.00 | 87 | 1020.4 |
| 20260901205005 | 13 | 194 | 1.6 | 3.2 | 0.00 | 0.00 | 0.00 | 88 | 1020.4 |
| 20260901204006 | 13 | 194 | 0.0 | 1.6 | 0.00 | 0.00 | 0.00 | 89 | 1020.4 |
| 20260901203006 | 13 | 194 | 0.0 | 1.6 | 0.00 | 0.00 | 0.00 | 89 | 1020.4 |
| 20260901202005 | 13 | 194 | 1.6 | 1.6 | 0.00 | 0.00 | 0.00 | 89 | 1020.3 |
| 20260901201003 | 13 | 194 | 1.6 | 3.2 | 0.00 | 0.00 | 0.00 | 87 | 1020.3 |
| 20260901200012 | 13 | 194 | 0.0 | 1.6 | 0.00 | 0.00 | 0.00 | 88 | 1020.3 |
| 20260901195004 | 13 | 194 | 0.0 | 1.6 | 0.00 | 0.00 | 0.00 | 87 | 1020.2 |
| 20260901194005 | 14 | 194 | 3.2 | 4.8 | 0.00 | 0.00 | 0.00 | 85 | 1020.2 |
| 20260901193004 | 14 | 194 | 3.2 | 4.8 | 0.00 | 0.00 | 0.00 | 86 | 1020.3 |
| 20260901191003 | 15 | 194 | 1.6 | 3.2 | 0.00 | 0.00 | 0.00 | 85 | 1020.2 |
| 20260901184003 | 15 | 194 | 1.6 | 4.8 | 0.00 | 0.00 | 0.00 | 85 | 1020.2 |
| 20260901182005 | 16 | 144 | 1.6 | 4.8 | 0.00 | 0.00 | 0.00 | 81 | 1020.1 |
| 20260901181003 | 16 | 144 | 1.6 | 3.2 | 0.00 | 0.00 | 0.00 | 81 | 1020.0 |
| 20260901180008 | 16 | 144 | 3.2 | 4.8 | 0.00 | 0.00 | 0.00 | 79 | 1019.9 |
| 20260901175005 | 17 | 144 | 3.2 | 4.8 | 0.00 | 0.00 | 0.00 | 77 | 1019.7 |
| 20260901174008 | 17 | 281 | 3.2 | 3.2 | 0.00 | 0.00 | 0.00 | 75 | 1019.7 |
| 20260901173003 | 18 | 281 | 1.6 | 3.2 | 0.00 | 0.00 | 0.00 | 73 | 1019.6 |
| 20260901172005 | 18 | 281 | 0.0 | 3.2 | 0.00 | 0.00 | 0.00 | 69 | 1019.6 |
| 20260901171005 | 19 | 281 | 1.6 | 3.2 | 0.00 | 0.00 | 0.00 | 67 | 1019.6 |
| 20260901170007 | 20 | 281 | 1.6 | 4.8 | 0.00 | 0.00 | 0.00 | 67 | 1019.5 |
| 20260901165004 | 20 | 281 | 1.6 | 3.2 | 0.00 | 0.00 | 0.00 | 65 | 1019.4 |
| 20260901164008 | 20 | 281 | 1.6 | 6.4 | 0.00 | 0.00 | 0.00 | 65 | 1019.5 |
| 20260901162003 | 20 | 311 | 3.2 | 6.4 | 0.00 | 0.00 | 0.00 | 64 | 1019.5 |
| 20260901155007 | 20 | 311 | 6.4 | 14.5 | 0.00 | 0.00 | 0.00 | 63 | 1019.5 |
| 20260901154005 | 20 | 323 | 8.0 | 14.5 | 0.00 | 0.00 | 0.00 | 63 | 1019.5 |
| 20260901153008 | 20 | 335 | 9.7 | 16.1 | 0.00 | 0.00 | 0.00 | 62 | 1019.5 |
| 20260901152004 | 20 | 329 | 9.7 | 17.7 | 0.00 | 0.00 | 0.00 | 62 | 1019.4 |
| 20260901151009 | 21 | 345 | 14.5 | 22.5 | 0.00 | 0.00 | 0.00 | 60 | 1019.3 |
| 20260901150008 | 21 | 299 | 12.9 | 22.5 | 0.00 | 0.00 | 0.00 | 59 | 1019.2 |
| 20260901145004 | 21 | 335 | 11.3 | 22.5 | 0.00 | 0.00 | 0.00 | 60 | 1019.2 |
| 20260901144007 | 21 | 290 | 11.3 | 20.9 | 0.00 | 0.00 | 0.00 | 58 | 1019.2 |
| 20260901143004 | 21 | 277 | 11.3 | 24.1 | 0.00 | 0.00 | 0.00 | 58 | 1019.2 |
| 20260901141004 | 22 | 263 | 12.9 | 24.1 | 0.00 | 0.00 | 0.00 | 57 | 1019.0 |
| 20260901140010 | 21 | 296 | 11.3 | 19.3 | 0.00 | 0.00 | 0.00 | 57 | 1019.1 |
| 20260901135006 | 21 | 284 | 12.9 | 22.5 | 0.00 | 0.00 | 0.00 | 56 | 1019.2 |
| 20260901134005 | 22 | 337 | 9.7 | 17.7 | 0.00 | 0.00 | 0.00 | 55 | 1019.1 |
| 20260901133005 | 22 | 313 | 12.9 | 22.5 | 0.00 | 0.00 | 0.00 | 55 | 1019.1 |
| 20260901132004 | 21 | 325 | 9.7 | 19.3 | 0.00 | 0.00 | 0.00 | 54 | 1019.1 |
| 20260901131005 | 21 | 286 | 11.3 | 20.9 | 0.00 | 0.00 | 0.00 | 53 | 1019.1 |
| 20260901130008 | 22 | 273 | 12.9 | 20.9 | 0.00 | 0.00 | 0.00 | 54 | 1019.1 |
| 20260901125005 | 22 | 326 | 16.1 | 25.7 | 0.00 | 0.00 | 0.00 | 54 | 1019.2 |
| 20260901124006 | 22 | 331 | 17.7 | 30.6 | 0.00 | 0.00 | 0.00 | 53 | 1019.1 |
| 20260901123005 | 22 | 21 | 12.9 | 25.7 | 0.00 | 0.00 | 0.00 | 52 | 1019.1 |
| 20260901122007 | 22 | 323 | 12.9 | 20.9 | 0.00 | 0.00 | 0.00 | 54 | 1019.1 |
| 20260901120008 | 22 | 15 | 9.7 | 19.3 | 0.00 | 0.00 | 0.00 | 53 | 1019.1 |
| 20260901115005 | 21 | 342 | 12.9 | 20.9 | 0.00 | 0.00 | 0.00 | 55 | 1019.2 |
| 20260901114007 | 21 | 243 | 6.4 | 14.5 | 0.00 | 0.00 | 0.00 | 56 | 1019.2 |
| 20260901112006 | 21 | 257 | 8.0 | 14.5 | 0.00 | 0.00 | 0.00 | 55 | 1019.2 |
| 20260901111005 | 21 | 271 | 8.0 | 16.1 | 0.00 | 0.00 | 0.00 | 56 | 1019.1 |
| 20260901110010 | 21 | 281 | 9.7 | 16.1 | 0.00 | 0.00 | 0.00 | 56 | 1019.1 |
| 20260901104006 | 21 | 300 | 6.4 | 16.1 | 0.00 | 0.00 | 0.00 | 58 | 1019.1 |
| 20260901103004 | 21 | 247 | 4.8 | 11.3 | 0.00 | 0.00 | 0.00 | 55 | 1019.1 |
| 20260901101004 | 21 | 292 | 6.4 | 16.1 | 0.00 | 0.00 | 0.00 | 57 | 1019.1 |
| 20260901100007 | 21 | 254 | 8.0 | 17.7 | 0.00 | 0.00 | 0.00 | 56 | 1019.1 |
| 20260901094007 | 21 | 265 | 8.0 | 20.9 | 0.00 | 0.00 | 0.00 | 61 | 1019.0 |
| 20260901092006 | 20 | 294 | 11.3 | 19.3 | 0.00 | 0.00 | 0.00 | 62 | 1019.0 |
| 20260901091004 | 21 | 288 | 11.3 | 20.9 | 0.00 | 0.00 | 0.00 | 59 | 1019.0 |
| 20260901090009 | 20 | 321 | 11.3 | 22.5 | 0.00 | 0.00 | 0.00 | 60 | 1019.0 |
| 20260901083006 | 20 | 270 | 16.1 | 27.4 | 0.00 | 0.00 | 0.00 | 61 | 1019.0 |
| 20260901082007 | 20 | 331 | 16.1 | 30.6 | 0.00 | 0.00 | 0.00 | 60 | 1018.9 |
| 20260901081004 | 20 | 310 | 14.5 | 25.7 | 0.00 | 0.00 | 0.00 | 60 | 1018.9 |
| 20260901080006 | 20 | 304 | 16.1 | 32.2 | 0.00 | 0.00 | 0.00 | 60 | 1018.9 |
| 20260901075007 | 19 | 321 | 16.1 | 30.6 | 0.00 | 0.00 | 0.00 | 62 | 1018.7 |
| 20260901074004 | 19 | 339 | 17.7 | 30.6 | 0.00 | 0.00 | 0.00 | 62 | 1018.7 |
| 20260901073006 | 19 | 309 | 14.5 | 29.0 | 0.00 | 0.00 | 0.00 | 62 | 1018.5 |
| 20260901072007 | 19 | 307 | 14.5 | 22.5 | 0.00 | 0.00 | 0.00 | 64 | 1018.6 |
| 20260901071005 | 19 | 305 | 11.3 | 22.5 | 0.00 | 0.00 | 0.00 | 65 | 1018.4 |
| 20260901070010 | 18 | 287 | 6.4 | 17.7 | 0.00 | 0.00 | 0.00 | 67 | 1018.3 |
| 20260901065006 | 18 | 296 | 4.8 | 12.9 | 0.00 | 0.00 | 0.00 | 69 | 1018.2 |
| 20260901064006 | 18 | 277 | 8.0 | 16.1 | 0.00 | 0.00 | 0.00 | 70 | 1018.2 |
| 20260901063007 | 17 | 289 | 11.3 | 17.7 | 0.00 | 0.00 | 0.00 | 70 | 1018.1 |